| time (UTC) | temp C | wind direction | speed KPH | gust KPH | rain 1hr cm | rain 24hr cm | rain mn cm | humidity % | barometer mb |
| 20260905201647 | 16 | 209 | 1.6 | 1.6 | 0.00 | 0.00 | 0.00 | 75 | 1025.4 |
| 20260905194643 | 16 | 184 | 0.0 | 1.6 | 0.00 | 0.00 | 0.00 | 78 | 1025.7 |
| 20260905191642 | 16 | 217 | 1.6 | 1.6 | 0.00 | 0.00 | 0.00 | 77 | 1025.9 |
| 20260905184637 | 17 | 197 | 0.0 | 1.6 | 0.00 | 0.00 | 0.00 | 74 | 1026.2 |
| 20260905181637 | 16 | 168 | 0.0 | 0.0 | 0.00 | 0.00 | 0.00 | 76 | 1026.2 |
| 20260905174634 | 16 | 111 | 0.0 | 1.6 | 0.00 | 0.00 | 0.00 | 78 | 1026.3 |
| 20260905171629 | 15 | 202 | 1.6 | 3.2 | 0.00 | 0.00 | 0.00 | 78 | 1026.2 |
| 20260905164625 | 15 | 133 | 1.6 | 3.2 | 0.00 | 0.00 | 0.00 | 80 | 1025.9 |
| 20260905161623 | 15 | 217 | 0.0 | 1.6 | 0.00 | 0.00 | 0.00 | 83 | 1026.0 |
| 20260905154619 | 15 | 193 | 0.0 | 1.6 | 0.00 | 0.00 | 0.00 | 85 | 1026.0 |
| 20260905151614 | 12 | 186 | 1.6 | 1.6 | 0.00 | 0.00 | 0.00 | 97 | 1025.9 |
| 20260905144614 | 10 | 200 | 0.0 | 1.6 | 0.00 | 0.00 | 0.00 | 99 | 1025.9 |
| 20260905141613 | 10 | 200 | 0.0 | 0.0 | 0.00 | 0.00 | 0.00 | 99 | 1025.4 |
| 20260905134612 | 10 | 200 | 0.0 | 0.0 | 0.00 | 0.00 | 0.00 | 99 | 1025.3 |
| 20260905131608 | 9 | 200 | 0.0 | 0.0 | 0.00 | 0.00 | 0.00 | 99 | 1025.4 |
| 20260905124607 | 9 | 210 | 0.0 | 0.0 | 0.00 | 0.00 | 0.00 | 99 | 1025.2 |
| 20260905121607 | 9 | 183 | 1.6 | 3.2 | 0.00 | 0.00 | 0.00 | 99 | 1025.1 |
| 20260905114601 | 9 | 194 | 0.0 | 0.0 | 0.00 | 0.00 | 0.00 | 99 | 1025.0 |
| 20260905111600 | 9 | 199 | 0.0 | 0.0 | 0.00 | 0.00 | 0.00 | 99 | 1024.9 |
| 20260905104555 | 10 | 200 | 0.0 | 0.0 | 0.00 | 0.00 | 0.00 | 99 | 1024.9 |
| 20260905101554 | 10 | 205 | 0.0 | 0.0 | 0.00 | 0.00 | 0.00 | 99 | 1024.7 |
| 20260905094551 | 10 | 194 | 1.6 | 3.2 | 0.00 | 0.00 | 0.00 | 99 | 1024.7 |
| 20260905091547 | 10 | 199 | 0.0 | 0.0 | 0.00 | 0.00 | 0.00 | 99 | 1024.8 |
| 20260905084543 | 10 | 202 | 0.0 | 0.0 | 0.00 | 0.00 | 0.00 | 99 | 1024.5 |
| 20260905081543 | 11 | 198 | 0.0 | 0.0 | 0.00 | 0.00 | 0.00 | 99 | 1024.3 |
| 20260905074543 | 11 | 199 | 0.0 | 0.0 | 0.00 | 0.00 | 0.00 | 99 | 1024.4 |
| 20260905071539 | 11 | 201 | 0.0 | 0.0 | 0.00 | 0.00 | 0.00 | 99 | 1024.3 |
| 20260905064535 | 12 | 183 | 0.0 | 0.0 | 0.00 | 0.00 | 0.00 | 99 | 1024.0 |
| 20260905061533 | 12 | 227 | 0.0 | 0.0 | 0.00 | 0.00 | 0.00 | 97 | 1023.5 |
| 20260905054531 | 12 | 200 | 0.0 | 0.0 | 0.00 | 0.00 | 0.00 | 99 | 1023.2 |
| 20260905051529 | 12 | 194 | 0.0 | 0.0 | 0.00 | 0.00 | 0.00 | 99 | 1023.4 |
| 20260905044526 | 13 | 204 | 0.0 | 0.0 | 0.00 | 0.00 | 0.00 | 97 | 1023.5 |
| 20260905041522 | 13 | 69 | 3.2 | 3.2 | 0.00 | 0.00 | 0.00 | 91 | 1023.3 |
| 20260905034521 | 13 | 204 | 0.0 | 0.0 | 0.00 | 0.00 | 0.00 | 93 | 1023.3 |
| 20260905031520 | 13 | 206 | 0.0 | 0.0 | 0.00 | 0.00 | 0.00 | 97 | 1023.2 |
| 20260905024518 | 15 | 190 | 1.6 | 1.6 | 0.00 | 0.00 | 0.00 | 89 | 1022.9 |
| 20260905021515 | 15 | 196 | 0.0 | 0.0 | 0.00 | 0.00 | 0.00 | 87 | 1022.6 |
| 20260905014510 | 15 | 200 | 1.6 | 1.6 | 0.00 | 0.00 | 0.00 | 85 | 1022.9 |
| 20260905011508 | 16 | 76 | 3.2 | 4.8 | 0.00 | 0.00 | 0.00 | 83 | 1022.6 |
| 20260905004508 | 16 | 179 | 1.6 | 3.2 | 0.00 | 0.00 | 0.00 | 84 | 1022.2 |
| 20260905001508 | 16 | 199 | 1.6 | 1.6 | 0.00 | 0.00 | 0.00 | 83 | 1021.9 |
| 20260904234506 | 17 | 12 | 3.2 | 3.2 | 0.00 | 0.00 | 0.00 | 66 | 1022.0 |
| 20260904231505 | 20 | 215 | 0.0 | 0.0 | 0.00 | 0.00 | 0.00 | 57 | 1021.5 |
| 20260904224505 | 21 | 218 | 1.6 | 1.6 | 0.00 | 0.00 | 0.00 | 60 | 1021.5 |
| 20260904221502 | 22 | 210 | 3.2 | 3.2 | 0.00 | 0.00 | 0.00 | 58 | 1021.3 |
| 20260904214501 | 22 | 164 | 1.6 | 1.6 | 0.00 | 0.00 | 0.00 | 58 | 1021.0 |
| 20260904211457 | 22 | 206 | 0.0 | 0.0 | 0.00 | 0.00 | 0.00 | 56 | 1020.9 |
| 20260904204453 | 21 | 229 | 1.6 | 3.2 | 0.00 | 0.00 | 0.00 | 61 | 1021.1 |